, AZ

(GMT )
Fort Huachuca

Weather History for KALK - August, 2014

Change the Weather History Date:

Thursday, August 28, 2014

  Actual Average Record
Temperature  
Mean Temperature 76 °F -  
Max Temperature 87 °F - - ()
Min Temperature 66 °F - - ()
Cooling Degree Days 12    
Growing Degree Days 26 (Base 50)    
Moisture  
Dew Point 50 °F    
Average Humidity 40    
Maximum Humidity 70    
Minimum Humidity 22    
Precipitation  
Precipitation 0.00 in - - ()
Sea Level Pressure  
Sea Level Pressure 29.88 in    
Wind  
Wind Speed 6 mph (West)    
Max Wind Speed 10 mph    
Max Gust Speed -    
Visibility 10 miles    
Events      
Averages and records for this station are not official NWS values.
T = Trace of Precipitation, MM = Missing Value Source: NWS Daily Summary

Daily Weather History Graph

Daily Weather History Graph

Search for Another Location

Airport or City:

Trip Planner

Search our weather history database for the weather conditions in past years. The results will help you decide how hot, cold, wet, or windy it might be!

Date:

Astronomy

Aug. 28, 2014 Rise Set
Actual Time 5:55 AM MST 6:50 PM MST
Civil Twilight 5:30 AM MST 7:15 PM MST
Nautical Twilight 5:00 AM MST 7:44 PM MST
Astronomical Twilight 4:30 AM MST 8:14 PM MST
Moon 8:37 AM MST (8/28) 8:31 PM MST (8/28)
Length of Visible Light 13h 45m
Length of Day
12h 55m
Waxing Crescent, 9% of the Moon is Illuminated
Aug 28
Waxing Crescent
Sep 2
First Quarter
Sep 8
Full
Sep 15
Last Quarter
Sep 23
New

Hourly Weather History & Observations

Time (MST) Temp. Heat Index Dew Point Humidity Pressure Visibility Wind Dir Wind Speed Gust Speed Precip Events Conditions
1:56 AM 66.9 °F - 55.0 °F 66% 29.93 in 10.0 mi SW 8.1 mph - N/A   Clear
6:56 AM 66.0 °F - 55.9 °F 70% 29.96 in 10.0 mi WSW 5.8 mph - N/A   Clear
7:56 AM 71.1 °F - 57.9 °F 63% 29.96 in 10.0 mi Calm Calm - N/A   Clear
8:56 AM 79.0 °F - 54.0 °F 42% 29.95 in 10.0 mi North 5.8 mph - N/A   Clear
9:56 AM 81.0 °F 80.4 °F 53.1 °F 38% 29.94 in 10.0 mi ENE 6.9 mph - N/A   Clear
10:56 AM 82.9 °F - 52.0 °F 34% 29.93 in 10.0 mi NE 8.1 mph - N/A   Clear
11:56 AM 84.0 °F - 52.0 °F 33% 29.91 in 10.0 mi NE 8.1 mph - N/A   Clear
12:56 PM 84.0 °F - 50.0 °F 31% 29.89 in 10.0 mi Variable 4.6 mph - N/A   Clear
1:56 PM 84.0 °F - 51.1 °F 32% 29.86 in 10.0 mi Variable 3.5 mph - N/A   Partly Cloudy
2:56 PM 84.9 °F - 46.9 °F 27% 29.83 in 10.0 mi NW 5.8 mph - N/A   Clear
3:56 PM 87.1 °F - 44.1 °F 22% 29.81 in 10.0 mi Calm Calm - N/A   Partly Cloudy
4:56 PM 84.9 °F - 45.0 °F 25% 29.81 in 10.0 mi West 8.1 mph - N/A   Mostly Cloudy
5:56 PM 84.0 °F - 45.0 °F 25% 29.83 in 10.0 mi WNW 10.4 mph - N/A   Scattered Clouds
6:56 PM 78.1 °F - 48.9 °F 36% 29.84 in 10.0 mi WNW 6.9 mph - N/A   Partly Cloudy
7:56 PM 73.9 °F - 48.9 °F 41% 29.85 in 10.0 mi WSW 5.8 mph - N/A   Partly Cloudy
8:56 PM 72.0 °F - 48.0 °F 43% 29.85 in 10.0 mi SW 8.1 mph - N/A   Clear
9:56 PM 70.0 °F - 48.0 °F 46% 29.85 in 10.0 mi WSW 9.2 mph - N/A   Clear
10:56 PM 69.1 °F - 48.0 °F 47% 29.85 in 10.0 mi SW 8.1 mph - N/A   Clear
11:56 PM 70.0 °F - 46.9 °F 44% 29.84 in 10.0 mi WSW 9.2 mph - N/A   Scattered Clouds